CAPE
49 12 4 122 154 231 280 122 107 192 333 363 474 496 526 672 678 605 664 694 687 702 690 733 721 989 827 778 911 957 963 671 884 951 982 600 316 452 380 368 546 597
36 7 24 72 115 212 319 291 215 264 249 321 349 308 377 361 471 524 502 550 516 509 644 710 735 876 992 818 896 984 636 559 538 889 841 704 525 483 446 422 311 449
5 4 1 4 18 62 174 140 167 272 335 250 330 367 203 128 232 289 423 528 507 578 652 671 824 942 994 1008 912 821 498 319 310 540 826 937 908 594 272 384 356 322
6 4 0 1 6 18 46 15 11 76 196 218 135 175 62 72 185 99 156 300 366 468 571 579 690 869 886 876 1023 838 714 438 445 433 433 468 752 812 781 443 275 323
3 2 1 2 6 15 10 8 7 11 20 56 87 70 37 142 104 63 69 106 113 105 189 355 450 602 730 908 453 310 672 793 798 758 679 587 698 412 254 627 510 293
3 2 4 6 11 8 6 7 9 7 4 11 19 9 13 30 76 23 36 12 0 0 15 105 264 445 677 980 587 441 563 627 764 856 392 456 530 752 694 219 254 288
4 10 17 15 11 15 14 10 8 14 17 15 6 12 13 22 16 11 26 20 2 0 0 14 111 255 522 703 894 670 588 659 745 668 454 283 307 606 569 549 546 542
16 14 20 19 33 23 22 5 0 20 38 12 10 16 17 8 4 11 13 9 3 3 0 0 4 67 178 749 922 735 641 482 693 697 500 306 263 324 349 624 337 230
14 13 14 26 21 19 15 21 26 19 17 15 18 18 5 10 8 1 0 0 0 5 5 1 0 1 117 583 501 594 685 557 514 597 363 267 222 246 266 257 354 364
8 14 29 16 7 13 22 31 13 9 17 20 10 9 8 6 2 0 0 0 0 7 9 6 0 0 0 151 471 604 493 308 341 429 359 235 207 247 275 274 242 303
9 18 22 15 15 21 25 17 17 20 23 8 3 4 2 2 0 0 0 2 12 8 1 0 5 3 8 137 216 251 195 230 205 243 288 274 351 239 169 131 162 142
9 10 12 20 32 29 31 25 26 24 16 9 2 3 3 2 1 1 14 6 1 3 3 1 3 7 168 249 200 170 259 206 150 228 211 279 371 234 127 116 189 241
12 22 21 26 33 25 16 16 19 16 10 6 8 2 0 3 3 1 1 0 0 2 7 6 11 22 545 286 328 318 268 245 260 250 263 324 295 274 274 282 271 298
27 24 11 14 21 12 12 16 10 10 15 11 6 5 8 4 2 0 0 2 7 9 14 21 27 45 585 401 374 335 368 321 302 278 326 350 332 218 168 208 306 294
15 20 10 8 10 16 13 11 11 13 12 4 3 7 15 5 1 3 2 9 9 10 8 10 30 328 346 340 252 328 324 272 252 254 274 318 314 220 182 182 167 208
9 7 0 3 12 10 10 12 9 10 12 11 13 18 12 8 9 8 6 9 5 0 2 18 56 499 418 100 145 91 110 222 208 180 220 260 265 243 228 219 141 108
1 0 1 6 13 6 7 5 6 16 16 22 25 14 16 15 15 13 14 12 9 8 10 30 59 421 112 143 124 115 83 89 124 95 139 222 282 262 152 146 92 8
1 1 5 5 3 0 2 7 10 8 9 10 13 8 10 14 18 13 11 14 17 15 13 27 66 180 191 140 133 119 67 1 16 100 175 210 293 283 187 176 80 14
0 2 7 6 7 9 11 6 3 2 7 4 7 12 16 15 14 15 15 14 14 6 11 21 91 357 194 120 130 128 85 4 5 71 156 227 242 276 237 155 170 125
2 3 3 3 6 6 7 2 4 8 10 8 11 13 15 17 19 19 15 14 10 19 21 15 22 205 167 106 163 158 147 110 4 116 222 242 242 274 260 221 208 127
2 2 2 3 3 4 6 5 9 14 10 14 20 24 23 23 20 15 23 25 20 21 18 28 38 0 56 148 176 159 122 56 76 207 251 346 340 356 358 261 123 111
4 4 12 7 4 1 0 0 1 5 13 19 22 19 26 25 20 21 25 15 3 9 12 11 23 103 85 129 120 70 56 23 34 36 84 238 357 465 437 348 230 107
4 2 3 4 1 0 0 2 6 11 14 22 17 19 20 20 20 23 20 13 9 11 26 16 17 120 62 0 0 0 0 5 20 18 37 90 174 335 490 545 452 259
2 1 0 0 0 0 0 4 12 15 17 22 22 21 18 19 5 13 13 11 7 18 36 47 127 69 0 0 0 0 0 0 6 16 40 85 162 306 166 236 458 306
2 0 0 0 0 0 3 5 6 9 12 17 17 18 14 2 16 7 5 2 6 30 62 175 209 106 0 0 0 0 0 0 2 11 23 41 77 175 230 356 472 454
0 0 0 0 0 0 0 1 3 6 11 11 18 16 10 11 9 7 6 1 6 22 41 430 405 131 0 0 0 0 0 0 0 11 8 5 6 21 43 104 248 168
Wind_Speed
nan nan nan 27 28 29 30 29 29 29 29 29 30 30 29 30 28 28 29 33 37 39 40 41 42 42 41 42 42 41 42 42 38 37 37 37 36 37 35 34 35 33
nan nan nan nan 27 27 29 30 29 29 30 31 30 30 29 29 30 29 28 28 30 33 37 39 40 40 41 42 42 42 43 43 40 40 38 37 37 39 34 32 34 33
nan nan nan nan nan nan 27 28 28 28 30 29 30 30 29 29 28 29 28 28 28 29 31 35 38 39 39 39 41 42 42 42 41 41 40 39 40 38 35 35 35 31
nan nan nan nan nan nan nan nan nan nan 29 29 29 30 nan nan 29 nan 28 27 28 28 29 29 33 36 35 36 38 40 40 42 42 43 42 40 39 38 36 37 35 33
nan nan nan nan nan nan nan nan nan nan nan nan nan nan nan 30 31 nan nan 29 29 27 26 27 29 30 33 36 43 38 37 39 40 43 45 42 40 37 32 35 39 37
nan nan nan nan nan nan nan nan nan nan nan nan nan nan nan nan nan nan nan nan nan nan nan 26 28 28 27 34 38 37 37 37 36 39 40 40 41 41 38 35 36 40
nan nan nan nan nan nan nan nan nan nan nan nan nan nan nan nan nan nan nan nan nan nan nan nan 26 28 27 30 32 36 38 37 36 37 38 38 39 40 40 38 34 36
nan nan nan nan nan nan nan nan nan nan nan nan nan nan nan nan nan nan nan nan nan nan nan nan nan nan 25 29 30 33 32 34 37 39 39 38 37 35 36 38 35 36
nan nan nan nan nan nan nan nan nan nan nan nan nan nan nan nan nan nan nan nan nan nan nan nan nan nan 25 27 25 25 30 32 35 40 41 39 39 37 33 32 34 39
nan nan nan nan nan nan nan nan nan nan nan nan nan nan nan nan nan nan nan nan nan nan nan nan nan nan nan 25 23 25 25 31 31 36 40 40 41 42 37 30 29 34
nan nan nan nan nan nan nan nan nan nan nan nan nan nan nan nan nan nan nan nan nan nan nan nan nan nan nan 27 27 27 31 33 32 33 36 37 38 41 42 37 30 28
nan nan nan nan nan nan nan nan nan nan nan nan nan nan nan nan nan nan nan nan nan nan nan nan nan nan 28 32 30 28 28 31 31 31 31 34 37 38 42 44 40 33
nan nan nan nan nan nan nan nan nan nan nan nan nan nan nan nan nan nan nan nan nan nan nan nan nan nan 32 31 31 29 28 28 29 29 29 32 36 37 40 42 44 41
nan nan nan nan nan nan nan nan nan nan nan nan nan nan nan nan nan nan nan nan nan nan nan nan nan nan 34 30 30 30 29 28 28 30 32 32 33 35 39 41 43 44
nan nan nan nan nan nan nan nan nan nan nan nan nan nan nan nan nan nan nan nan nan nan nan nan nan 35 36 31 29 29 30 29 28 28 31 33 34 35 38 40 40 42
nan nan nan nan nan nan nan nan nan nan nan nan nan nan nan nan nan nan nan nan nan nan nan nan nan 37 35 nan 31 nan 29 29 29 28 29 30 32 35 37 40 41 42
nan nan nan nan nan nan nan nan nan nan nan nan nan nan nan nan nan nan nan nan nan nan nan nan nan 39 36 32 32 31 nan nan 29 nan 28 28 29 33 35 37 nan nan
nan nan nan nan nan nan nan nan nan nan nan nan nan nan nan nan nan nan nan nan nan nan nan nan nan 43 37 34 33 31 nan nan nan nan 29 29 28 29 33 35 nan nan
nan nan nan nan nan nan nan nan nan nan nan nan nan nan nan nan nan nan nan nan nan nan nan nan nan 43 36 34 31 30 nan nan nan nan 28 29 28 27 30 35 34 33
nan nan nan nan nan nan nan nan nan nan nan nan nan nan nan nan nan nan nan nan nan nan nan nan nan 40 38 34 32 32 31 29 nan 28 27 28 28 27 29 33 34 32
nan nan nan nan nan nan nan nan nan nan nan nan nan nan nan nan nan nan nan nan nan nan nan nan nan nan nan 37 37 35 31 nan nan 28 28 27 28 27 28 31 33 31
nan nan nan nan nan nan nan nan nan nan nan nan nan nan nan nan nan nan nan nan nan nan nan nan nan 43 nan 38 36 nan nan nan nan nan nan 27 27 27 28 30 33 31
nan nan nan nan nan nan nan nan nan nan nan nan nan nan nan nan nan nan nan nan nan nan nan nan nan 43 nan nan nan nan nan nan nan nan nan nan 27 28 28 29 32 33
nan nan nan nan nan nan nan nan nan nan nan nan nan nan nan nan nan nan nan nan nan nan nan nan 36 nan nan nan nan nan nan nan nan nan nan nan 28 31 30 29 29 32
nan nan nan nan nan nan nan nan nan nan nan nan nan nan nan nan nan nan nan nan nan nan nan 32 33 32 nan nan nan nan nan nan nan nan nan nan nan 29 29 28 31 34
nan nan nan nan nan nan nan nan nan nan nan nan nan nan nan nan nan nan nan nan nan nan nan 28 29 31 nan nan nan nan nan nan nan nan nan nan nan nan nan 29 32 34
Wind_Direction
nan nan nan 330 330 330 331 330 332 332 329 325 319 315 312 311 309 300 289 280 274 271 267 264 262 264 264 262 259 256 254 252 252 256 259 258 255 252 250 245 240 242
nan nan nan nan 330 331 330 330 333 333 333 331 326 322 318 317 315 312 305 297 287 280 273 266 262 260 261 263 263 261 258 256 252 254 257 257 255 253 253 255 249 237
nan nan nan nan nan nan 328 328 332 334 334 333 330 327 323 320 317 315 311 307 301 295 288 278 270 262 259 261 263 264 263 260 257 254 254 257 254 247 247 253 254 246
nan nan nan nan nan nan nan nan nan nan 334 334 331 333 nan nan 320 nan 315 309 304 300 297 292 282 274 265 260 262 264 265 264 263 260 256 258 258 252 246 253 251 251
nan nan nan nan nan nan nan nan nan nan nan nan nan nan nan 332 325 nan nan 313 304 295 296 299 293 282 272 262 256 250 253 256 258 259 259 257 256 258 255 251 254 253
nan nan nan nan nan nan nan nan nan nan nan nan nan nan nan nan nan nan nan nan nan nan nan 298 297 290 277 267 264 264 260 257 256 257 256 255 258 259 258 253 248 252
nan nan nan nan nan nan nan nan nan nan nan nan nan nan nan nan nan nan nan nan nan nan nan nan 299 298 288 275 266 260 257 257 259 256 253 252 254 257 259 260 260 258
nan nan nan nan nan nan nan nan nan nan nan nan nan nan nan nan nan nan nan nan nan nan nan nan nan nan 295 285 271 266 262 258 257 258 256 253 250 247 252 254 253 253
nan nan nan nan nan nan nan nan nan nan nan nan nan nan nan nan nan nan nan nan nan nan nan nan nan nan 294 292 285 269 257 253 259 260 256 251 247 248 251 253 253 253
nan nan nan nan nan nan nan nan nan nan nan nan nan nan nan nan nan nan nan nan nan nan nan nan nan nan nan 291 284 274 259 251 250 253 251 248 245 241 243 246 247 249
nan nan nan nan nan nan nan nan nan nan nan nan nan nan nan nan nan nan nan nan nan nan nan nan nan nan nan 282 275 266 250 245 245 249 249 246 245 243 241 242 246 251
nan nan nan nan nan nan nan nan nan nan nan nan nan nan nan nan nan nan nan nan nan nan nan nan nan nan 290 286 286 279 268 258 251 246 244 245 246 242 242 245 247 250
nan nan nan nan nan nan nan nan nan nan nan nan nan nan nan nan nan nan nan nan nan nan nan nan nan nan 293 286 285 283 280 271 263 255 250 247 245 242 242 244 245 247
nan nan nan nan nan nan nan nan nan nan nan nan nan nan nan nan nan nan nan nan nan nan nan nan nan nan 290 286 286 284 282 277 269 260 253 248 246 242 241 242 243 245
nan nan nan nan nan nan nan nan nan nan nan nan nan nan nan nan nan nan nan nan nan nan nan nan nan 296 297 293 287 283 280 277 273 266 259 254 249 244 243 244 247 250
nan nan nan nan nan nan nan nan nan nan nan nan nan nan nan nan nan nan nan nan nan nan nan nan nan 301 296 nan 289 nan 280 278 276 271 265 259 254 249 246 249 250 250
nan nan nan nan nan nan nan nan nan nan nan nan nan nan nan nan nan nan nan nan nan nan nan nan nan 297 293 296 289 282 nan nan 274 nan 270 266 260 253 247 246 nan nan
nan nan nan nan nan nan nan nan nan nan nan nan nan nan nan nan nan nan nan nan nan nan nan nan nan 299 298 298 292 289 nan nan nan nan 271 268 263 255 252 248 nan nan
nan nan nan nan nan nan nan nan nan nan nan nan nan nan nan nan nan nan nan nan nan nan nan nan nan 303 300 297 295 289 nan nan nan nan 270 269 265 257 252 249 247 250
nan nan nan nan nan nan nan nan nan nan nan nan nan nan nan nan nan nan nan nan nan nan nan nan nan 300 302 298 289 280 276 275 nan 274 272 271 269 263 254 251 249 247
nan nan nan nan nan nan nan nan nan nan nan nan nan nan nan nan nan nan nan nan nan nan nan nan nan nan nan 291 280 275 268 nan nan 269 265 267 271 270 264 256 253 250
nan nan nan nan nan nan nan nan nan nan nan nan nan nan nan nan nan nan nan nan nan nan nan nan nan 286 nan 277 273 nan nan nan nan nan nan 261 261 267 269 264 256 251
nan nan nan nan nan nan nan nan nan nan nan nan nan nan nan nan nan nan nan nan nan nan nan nan nan 290 nan nan nan nan nan nan nan nan nan nan 256 255 253 257 255 250
nan nan nan nan nan nan nan nan nan nan nan nan nan nan nan nan nan nan nan nan nan nan nan nan 289 nan nan nan nan nan nan nan nan nan nan nan 252 252 252 249 247 236
nan nan nan nan nan nan nan nan nan nan nan nan nan nan nan nan nan nan nan nan nan nan nan 291 299 299 nan nan nan nan nan nan nan nan nan nan nan 246 249 254 252 248
nan nan nan nan nan nan nan nan nan nan nan nan nan nan nan nan nan nan nan nan nan nan nan 303 300 290 nan nan nan nan nan nan nan nan nan nan nan nan nan 247 248 243